User: anonymous   Login
Location: Betra
(48.4113°N, 8.6634°E)
Time: 04:26:23
(UTC+00:00)
Language:

Cosmos 1833 Rocket - Orbit

View from above orbital plane
View from above orbital plane
View from above satellite
View from above satellite

Ground track
Ground track

The orbit data is extracted from the following two-line orbital elements,

1 17590U 87027B   24194.47150485  .00000001  00000-0  24470-4 0  9992
2 17590  71.0033 111.6800 0006592 308.7312  51.3222 14.16983681929643
Epoch (UTC): 12 July 2024 11:18:58
Eccentricity: 0.0006592
inclination: 71.0033°
perigee height: 831 km
apogee height: 840 km
right ascension of ascending node: 111.6800°
argument of perigee: 308.7312°
revolutions per day: 14.16983681
mean anomaly at epoch: 51.3222°
orbit number at epoch: 92964

The dashed part of the orbit path shows where the satellite is in the earth's shadow,  

DLR